Theta_e
322 323 320 319 319 318 317 317 318 318 320 321 318 320 329 339 342 343 345 341 337 338 339 338 337 337 337 336 336 336 336 337 337 337 337 336 335 335 336 336 337 337 337 337 337 337 339 341 341 342 342 342 342 343 344 346 348 350 351 353 353 352 352 353 353 352 352 352 352 353 354 354 353 353 351 351 352 350 348 349 350 348 347 347 348 349 350
320 320 321 321 318 317 317 317 318 318 318 319 318 320 332 343 343 343 345 344 341 339 338 338 337 336 335 335 336 335 334 335 335 335 335 334 334 333 333 334 334 335 335 337 337 337 337 339 340 341 342 343 343 343 344 345 347 348 349 351 353 353 353 353 354 354 352 351 351 351 353 353 353 353 352 352 352 350 348 347 347 348 348 347 348 348 349
319 318 320 319 317 318 316 315 318 318 317 317 317 324 338 345 343 343 344 344 343 341 338 337 337 336 335 335 336 337 336 335 334 334 333 333 333 332 332 332 332 333 334 335 335 335 335 336 337 339 341 342 342 343 344 344 344 344 344 346 347 348 348 348 350 352 352 351 351 351 351 352 353 353 352 353 352 351 349 347 345 345 346 347 348 349 349
318 318 318 318 317 317 314 314 317 316 316 318 316 324 339 343 341 342 342 341 341 339 336 336 337 336 336 335 335 337 336 335 335 334 333 334 333 332 331 332 332 332 331 332 334 333 333 333 334 335 337 338 341 343 343 343 343 342 341 343 343 343 343 343 344 348 350 350 351 351 351 352 353 353 353 353 353 350 349 348 347 345 344 344 346 348 350
319 317 317 316 315 315 314 315 317 316 318 318 314 322 338 343 340 341 341 340 340 338 336 336 336 336 335 334 333 334 335 334 333 332 331 331 332 331 330 330 331 330 330 330 332 332 331 332 332 332 333 334 337 340 340 338 339 339 339 341 342 342 342 341 342 346 348 348 348 349 351 352 352 353 353 354 354 353 352 351 351 348 346 344 343 346 350
321 319 318 318 316 315 317 320 320 320 319 316 317 326 338 341 339 339 340 339 338 337 336 336 336 335 334 334 332 333 334 332 331 330 329 329 331 331 329 329 329 327 327 328 330 330 330 331 331 331 332 331 332 336 337 335 335 337 337 338 339 340 341 341 341 341 342 345 345 345 346 349 350 351 353 353 353 353 354 353 352 351 349 347 345 346 350
322 321 319 319 317 317 321 323 324 323 321 320 327 333 338 339 338 339 338 337 336 337 336 335 335 333 332 333 332 332 332 331 329 328 329 329 330 330 330 330 328 325 325 326 328 329 327 328 330 331 332 331 330 332 334 334 334 334 335 336 336 337 339 340 342 340 337 340 343 343 343 344 345 347 349 352 352 352 353 353 353 353 352 350 349 348 349
322 321 319 319 321 322 324 325 325 326 327 329 332 336 338 339 338 337 336 336 337 337 335 333 333 331 331 333 333 331 331 330 327 326 326 326 327 328 328 328 326 324 324 326 327 326 323 325 329 331 332 332 331 331 333 334 333 333 333 333 334 335 336 337 340 342 340 339 340 340 340 343 345 347 348 349 350 351 352 353 354 354 353 352 351 351 351
322 319 318 321 324 323 323 327 328 326 328 330 333 335 338 339 337 336 336 336 337 336 333 331 330 329 330 333 333 328 327 327 325 324 323 324 325 325 325 324 324 324 324 325 325 324 323 325 329 330 331 331 331 332 332 333 333 332 332 333 332 332 334 334 336 341 342 341 340 338 336 338 343 346 347 349 349 349 351 352 354 355 355 355 354 353 353
322 319 319 322 324 323 324 329 329 324 324 329 333 334 335 336 336 335 335 335 334 334 333 330 330 329 331 334 333 328 325 324 323 322 322 321 322 323 322 322 323 323 323 324 324 324 324 326 327 326 327 328 330 331 332 333 333 332 332 333 331 331 332 333 334 336 338 339 340 340 338 335 337 339 339 342 343 341 342 346 350 353 355 355 355 356 356
323 321 320 319 321 325 329 331 329 324 322 325 330 333 334 336 336 335 334 333 332 333 332 331 330 332 334 335 333 327 325 324 322 322 322 321 321 321 320 321 323 323 323 323 324 324 325 326 326 326 326 327 327 329 331 333 333 333 333 333 332 331 332 333 332 332 334 335 337 341 342 340 339 339 336 336 336 335 334 338 343 348 350 352 353 355 355
325 324 320 318 321 327 329 327 325 324 324 325 327 329 332 335 335 334 333 332 332 333 333 333 334 336 336 334 330 325 323 323 322 321 322 321 321 321 321 322 322 322 323 323 323 324 325 326 326 326 327 328 328 328 330 332 333 333 333 333 332 331 332 332 332 331 333 333 333 337 341 342 343 342 340 338 338 338 338 338 340 343 345 346 348 350 352
324 323 320 319 324 328 327 326 324 322 323 325 325 327 332 334 334 333 332 332 332 331 331 331 333 333 331 328 325 322 321 322 322 321 321 321 321 321 322 322 321 321 322 322 322 322 323 324 325 325 327 328 328 328 329 330 331 332 332 332 332 332 332 331 330 330 331 331 331 333 336 340 343 343 341 340 342 343 343 343 342 343 343 343 343 344 346
320 321 320 323 328 327 324 324 323 322 325 325 326 332 334 331 330 331 329 329 328 327 327 327 328 327 324 323 323 322 322 322 322 321 321 321 321 321 321 321 321 321 321 320 321 322 322 323 323 324 325 326 326 327 328 328 327 329 330 331 331 332 331 329 328 329 330 330 329 330 333 336 338 337 337 339 342 344 345 345 345 345 345 346 346 346 347
319 318 319 325 330 328 323 323 324 328 332 331 330 332 329 325 325 325 324 325 325 325 325 324 323 323 323 322 322 322 322 322 321 321 321 320 320 320 320 320 320 320 319 319 320 321 321 321 321 322 323 324 324 325 327 326 326 327 327 328 330 331 330 329 329 329 328 328 329 331 332 332 332 333 335 338 341 343 345 346 346 347 347 347 346 345 345
323 321 321 325 329 329 327 328 330 332 334 334 333 329 325 323 324 324 324 325 325 324 324 322 321 321 321 322 323 322 321 320 320 320 320 319 319 319 319 319 319 318 318 319 319 320 320 320 320 321 321 322 323 324 325 325 326 327 326 326 329 331 330 329 329 327 326 327 330 331 331 330 331 332 333 334 335 338 344 347 348 346 344 342 339 338 338
329 328 327 328 329 327 326 329 330 330 330 332 333 329 326 325 324 324 324 324 323 323 323 321 320 321 321 322 322 320 320 320 319 319 319 318 318 319 318 318 318 318 318 318 318 319 320 319 320 321 321 321 322 323 323 323 325 325 326 326 327 329 329 329 329 327 326 328 330 330 329 330 330 330 330 331 332 336 341 343 342 341 340 339 338 337 337
332 330 327 326 326 326 325 325 326 327 327 329 330 329 327 326 325 325 324 323 323 324 324 323 322 320 320 320 320 320 320 319 318 318 318 317 317 317 317 317 317 317 317 318 318 319 319 319 319 320 320 320 321 322 322 323 323 324 325 325 326 327 328 328 328 326 326 328 330 330 329 329 329 329 330 332 333 334 335 334 333 335 338 338 337 337 337
330 329 329 328 326 325 324 324 323 323 325 327 327 327 326 325 325 326 324 323 323 323 324 325 323 320 319 320 320 321 322 319 317 317 317 317 316 316 316 316 317 317 317 317 318 318 319 319 319 319 320 320 320 320 321 322 323 323 324 325 326 326 326 327 327 326 325 327 329 329 328 329 329 329 330 331 332 333 332 331 330 332 334 334 334 334 335
327 329 331 330 327 325 323 323 322 321 323 325 325 324 324 324 323 324 323 322 321 321 323 325 323 320 320 321 321 322 321 319 317 317 316 316 315 315 316 316 316 317 318 318 318 318 318 318 319 319 320 321 321 321 321 321 322 323 323 324 325 325 325 326 327 325 325 327 328 327 327 328 327 327 329 330 330 330 330 330 331 331 331 331 331 331 332
328 331 331 330 330 330 326 323 323 321 322 324 324 323 322 322 322 322 321 320 319 320 321 323 323 322 322 321 320 321 320 318 316 316 315 315 315 315 315 316 316 316 317 317 317 318 318 318 318 318 318 320 322 323 323 322 322 322 323 324 325 325 325 326 326 325 326 327 326 325 325 324 323 325 327 328 328 328 329 329 330 330 330 330 330 329 330
330 330 330 330 331 332 329 326 325 323 322 324 324 322 322 322 322 322 321 319 318 319 318 319 321 323 322 319 317 318 318 316 315 315 314 314 315 315 315 315 316 316 317 317 317 317 317 317 317 317 318 320 322 323 324 323 323 323 324 324 324 325 326 327 326 325 325 325 324 324 324 323 322 323 325 326 327 328 328 328 328 329 330 330 330 329 329
329 326 326 328 330 331 330 328 326 323 322 323 323 322 322 321 321 321 321 319 319 320 318 316 317 321 321 317 315 316 316 314 314 314 313 314 314 314 314 315 316 317 317 316 316 316 317 317 316 316 318 320 321 321 322 322 323 324 325 325 325 326 327 327 326 325 324 324 324 324 324 323 324 324 325 325 326 326 326 326 326 327 327 327 329 330 329
327 325 326 327 327 328 329 328 326 324 322 322 323 322 322 321 319 319 320 320 319 320 320 317 315 317 317 315 315 315 315 314 313 313 313 313 313 314 314 316 316 316 316 316 316 316 316 316 315 315 317 318 319 319 320 320 321 323 324 325 325 326 326 325 325 324 324 323 323 323 324 324 324 324 324 325 325 324 323 322 322 323 323 324 328 330 330
328 328 326 324 324 327 327 326 326 325 322 322 323 323 321 320 317 317 319 319 317 317 318 317 315 314 314 314 314 314 313 313 312 312 312 313 313 314 315 315 315 315 315 315 315 315 316 316 314 314 316 317 317 316 317 317 318 320 322 323 324 324 325 324 323 323 323 323 323 323 324 324 324 324 324 324 324 323 321 318 319 321 322 324 327 330 330
326 327 326 323 323 325 324 324 327 327 323 321 323 322 320 318 317 316 317 317 315 315 315 315 314 313 313 313 313 312 312 312 312 312 312 313 314 315 315 314 314 315 314 314 314 315 316 315 314 314 315 315 315 314 315 315 316 317 319 320 321 323 324 324 323 322 322 322 322 322 322 321 322 322 322 321 321 321 320 320 321 322 323 325 327 329 330
324 325 325 324 324 324 324 326 329 326 321 319 320 320 318 316 317 316 315 315 315 315 314 314 313 313 312 312 312 312 312 311 311 311 313 314 314 314 314 314 314 313 313 313 314 314 315 315 314 314 314 314 313 313 313 313 314 314 315 317 318 320 321 322 321 321 321 321 320 320 320 320 320 320 319 319 319 320 321 322 322 323 324 325 326 328 328
323 323 324 325 325 325 324 325 324 322 319 318 319 319 318 317 317 318 318 317 315 314 314 314 313 312 312 312 311 312 312 311 311 312 313 314 314 313 313 313 313 312 313 313 313 313 313 313 313 313 314 313 312 312 311 311 312 312 313 314 315 317 318 317 317 317 318 318 319 319 319 319 319 318 318 319 319 320 322 322 323 323 324 324 325 326 326
320 320 321 322 322 322 322 322 323 323 322 319 318 318 318 319 319 320 321 319 316 314 314 313 312 312 312 311 311 311 311 311 312 312 313 313 313 312 312 312 311 311 312 312 312 312 312 312 313 313 312 312 311 311 310 310 311 311 312 313 313 314 314 314 313 314 315 316 316 318 318 318 318 319 319 319 320 321 322 322 322 323 323 324 325 325 325
318 318 318 319 319 318 319 320 322 323 323 321 320 320 319 319 320 321 321 318 316 315 314 312 312 313 312 311 311 311 311 311 311 312 312 312 312 312 312 311 311 311 311 311 311 311 311 312 312 312 311 311 311 310 310 309 310 310 311 312 312 313 312 312 312 312 313 313 314 315 316 317 317 317 318 319 320 321 321 321 321 322 323 323 323 323 324
318 318 318 319 318 318 318 318 319 319 320 320 321 321 320 319 320 321 321 320 318 316 314 313 313 313 312 312 312 311 311 311 312 312 312 312 311 311 311 311 311 311 311 311 311 311 311 311 312 311 310 310 309 309 309 309 309 309 310 311 311 311 311 311 311 311 311 312 313 314 314 315 316 317 318 319 320 320 320 320 320 321 322 322 322 323 323
318 318 318 318 317 316 317 318 318 318 318 318 318 319 319 319 320 320 321 320 318 316 315 314 314 313 312 311 311 311 311 311 312 312 312 312 311 311 310 310 310 310 310 310 311 310 310 311 311 310 309 308 308 308 308 308 308 308 309 309 309 310 310 310 310 310 310 311 312 313 313 314 315 316 317 318 319 319 319 319 319 320 321 321 321 321 321
319 319 319 319 318 317 317 318 318 319 319 318 317 317 318 317 317 318 318 317 316 315 315 314 313 312 311 311 311 311 311 311 312 312 312 311 311 310 310 310 310 310 309 310 310 310 310 310 309 308 308 307 307 307 307 307 307 308 308 308 308 308 309 309 309 310 310 311 311 312 312 313 313 314 314 316 317 317 318 318 318 319 319 319 320 319 319
319 319 318 318 317 317 318 318 318 319 319 318 317 317 317 316 316 316 316 316 316 316 315 314 312 311 311 311 311 311 311 312 312 312 311 311 310 310 310 310 309 309 309 309 310 310 309 308 308 307 307 306 306 306 307 307 307 307 307 307 307 307 308 308 308 309 309 310 310 310 310 311 311 312 314 315 315 315 316 316 316 317 317 318 319 319 319
317 317 317 316 316 316 317 317 317 318 319 319 318 318 317 315 315 316 316 316 315 315 315 314 312 311 311 311 312 312 311 312 312 312 311 310 310 309 309 309 309 308 308 309 309 309 308 307 308 307 306 305 305 305 306 306 307 307 306 305 305 306 306 306 307 307 308 308 308 309 309 310 311 312 312 313 313 313 314 315 315 316 317 317 318 318 318
315 316 316 315 315 315 315 315 316 317 318 319 319 317 316 315 316 316 316 315 313 313 313 313 313 312 312 312 312 311 311 311 311 311 310 309 309 308 308 308 308 308 308 308 308 307 307 307 307 307 306 305 305 305 305 306 306 306 304 303 304 304 304 305 305 305 306 306 307 308 309 309 310 310 310 311 311 312 313 314 315 315 316 316 316 316 316
313 314 314 314 314 314 314 314 315 315 315 316 317 316 316 316 316 315 314 313 312 312 312 313 313 313 312 312 311 311 311 311 310 309 309 308 308 307 307 307 307 307 308 308 307 306 306 306 306 305 304 304 305 305 305 305 305 305 304 303 302 302 302 303 304 304 305 306 307 307 308 308 308 309 309 309 310 311 312 312 313 313 314 314 314 314 314
310 311 312 312 312 313 313 314 314 314 314 314 315 316 316 316 316 315 313 312 312 312 312 313 313 313 312 312 311 311 311 310 309 309 308 308 307 307 306 306 307 307 307 307 306 305 305 305 304 304 304 304 304 304 303 304 305 304 302 301 301 301 301 302 303 304 305 306 306 307 307 307 307 308 308 309 309 310 310 311 311 312 312 312 312 312 313
309 309 310 311 311 311 312 312 313 313 313 314 314 314 314 315 315 315 314 313 312 311 312 313 313 313 312 312 311 311 311 310 309 308 308 307 306 306 306 306 306 307 306 306 305 304 303 303 303 304 304 303 303 303 303 303 303 301 300 299 300 301 301 302 303 304 305 305 306 306 306 306 306 306 307 307 308 308 309 309 310 310 310 310 310 311 311
309 309 309 310 310 310 310 311 311 312 312 313 313 313 313 314 314 315 315 314 313 312 312 313 313 313 312 312 312 311 310 309 308 308 307 306 306 305 306 306 306 306 305 305 303 303 302 302 303 303 303 302 302 302 302 301 300 299 299 299 300 301 301 302 303 304 304 305 305 305 305 305 305 305 305 306 306 307 307 308 308 308 308 309 309 309 309
308 308 308 308 309 309 309 309 310 311 311 312 312 313 313 314 314 314 315 314 313 312 312 312 313 313 312 312 311 310 310 309 308 307 306 306 305 305 306 306 306 305 305 304 303 302 302 303 303 303 302 302 301 301 300 299 298 299 300 300 300 301 302 302 302 303 303 303 303 304 304 304 304 304 304 304 305 305 306 306 306 307 307 307 307 307 308
307 307 307 307 308 308 308 309 309 309 310 310 310 311 312 313 313 313 314 314 313 312 311 311 312 313 312 311 311 310 309 308 307 307 306 306 305 305 305 306 305 304 304 304 302 301 302 303 303 302 301 300 299 299 299 299 299 299 300 300 300 301 301 301 301 302 301 301 302 302 302 302 303 303 303 304 304 304 304 304 305 305 306 306 306 306 306
307 306 306 306 307 307 307 308 308 308 309 309 309 310 311 313 313 313 314 314 313 311 311 311 312 312 312 311 310 309 308 307 307 306 306 305 305 305 305 305 304 304 304 303 302 302 302 302 302 301 300 299 298 299 299 299 299 299 299 299 300 300 300 300 300 300 300 300 300 300 300 301 301 302 302 302 302 303 303 303 304 304 304 304 304 304 304
306 306 306 306 306 306 306 306 307 307 308 308 308 308 310 312 313 313 313 313 312 311 311 311 311 311 311 311 310 309 308 307 306 306 305 306 305 305 305 305 304 304 303 303 302 302 301 301 301 300 299 298 298 299 299 299 299 299 299 298 299 298 299 299 299 299 299 299 299 299 299 299 300 300 301 301 301 302 302 302 303 303 303 303 303 302 302
306 306 306 306 306 306 306 306 306 307 308 308 307 306 307 309 312 313 313 312 312 311 311 311 311 310 310 310 310 308 307 307 306 306 306 306 306 305 305 304 304 303 303 303 302 302 301 301 300 299 298 298 298 298 298 298 298 298 297 297 298 298 298 298 298 298 298 298 298 298 298 299 299 299 299 299 300 300 301 301 302 302 301 301 301 301 301
306 306 306 306 306 306 306 305 306 306 307 307 308 306 305 306 309 311 312 312 311 311 311 310 309 309 309 309 309 308 307 306 306 305 305 306 306 305 304 304 304 303 303 303 302 302 301 301 300 299 299 299 298 298 297 297 297 297 297 297 297 297 297 297 297 297 297 297 297 297 298 298 298 298 298 298 298 299 300 300 300 300 300 299 300 300 300
306 306 306 305 306 306 306 305 305 306 306 308 309 308 306 305 307 309 311 311 311 311 311 310 308 308 309 309 308 307 307 306 306 306 305 305 305 305 304 304 303 303 303 302 302 301 301 300 300 299 298 299 298 298 297 297 297 297 296 296 296 297 297 297 297 296 296 296 296 296 296 296 296 296 296 297 297 297 298 299 299 299 298 298 298 298 298
306 306 306 306 306 306 306 306 306 306 307 307 308 307 306 305 307 309 310 310 309 309 309 309 308 308 308 309 308 306 306 306 306 306 306 305 305 305 304 304 304 303 303 302 302 301 301 300 300 299 299 298 298 298 297 297 297 297 296 296 296 296 296 296 296 295 295 295 296 295 295 295 295 295 295 296 296 296 297 297 297 297 297 296 296 296 296
307 307 306 306 306 306 306 306 307 307 306 307 307 307 307 307 308 309 310 309 307 307 307 309 309 308 308 308 307 306 306 307 306 306 305 305 305 304 304 304 304 303 302 302 302 301 301 300 300 299 299 299 298 298 298 298 297 297 297 296 296 296 296 295 295 295 295 295 295 295 294 294 294 294 294 294 294 295 295 295 295 295 295 294 294 295 294
307 307 307 306 306 306 305 306 307 307 307 307 307 307 307 307 308 309 309 308 307 307 307 308 309 308 308 307 307 307 306 306 306 305 305 305 305 304 304 304 304 303 302 302 302 301 301 301 300 300 299 299 299 298 298 298 297 297 297 297 296 295 295 295 295 295 295 294 294 294 294 293 293 293 293 293 293 293 293 293 294 294 293 293 293 293 293
307 307 307 306 306 306 305 306 306 306 307 307 307 307 307 308 308 309 308 308 308 307 308 308 308 308 308 307 307 306 306 306 305 305 305 304 304 304 304 303 303 303 302 302 301 301 301 301 301 300 300 299 299 299 299 298 298 298 297 297 297 296 295 295 295 295 294 294 294 293 293 293 293 293 293 292 292 292 292 292 292 292 292 291 292 292 291
307 307 306 306 306 306 306 306 306 306 306 307 307 307 307 308 308 307 307 306 306 307 308 308 308 307 307 306 306 305 306 306 305 305 304 304 304 303 303 303 302 302 302 302 301 301 301 301 301 300 300 300 299 299 299 298 298 298 298 297 297 296 296 295 294 294 294 294 293 293 293 293 293 293 292 292 292 292 292 292 292 291 291 291 291 290 290
Wind_Speed
4 6 6 6 7 5 8 12 9 5 6 6 3 2 4 6 6 7 9 13 13 10 11 13 12 11 11 10 10 10 12 11 10 11 13 13 12 11 9 8 7 7 7 8 12 14 15 17 19 19 19 19 19 19 17 18 19 16 15 19 23 22 19 16 13 9 4 2 1 3 7 9 11 12 11 9 5 5 5 12 17 19 22 22 24 28 28
7 8 6 3 7 7 7 8 6 6 9 6 3 3 7 10 10 13 14 12 10 9 10 12 11 10 10 10 9 10 12 11 10 11 12 12 12 12 11 10 9 8 8 9 12 14 15 16 18 17 16 17 18 18 16 17 19 19 17 19 23 24 22 19 16 15 12 8 5 2 2 5 8 11 13 14 12 7 5 8 12 13 16 17 17 24 30
7 9 4 3 6 5 5 7 6 7 7 7 6 5 11 13 11 13 15 13 9 6 8 10 9 10 11 10 9 10 10 11 11 12 12 11 11 11 10 10 9 9 10 10 12 15 15 15 15 15 13 14 16 19 20 21 21 20 19 21 23 25 25 21 17 16 17 15 12 8 5 2 1 4 10 14 17 15 10 10 13 13 14 16 15 17 26
3 7 7 4 4 5 4 6 6 4 2 3 5 3 9 13 13 13 13 11 7 6 9 11 10 11 12 11 9 8 9 11 12 11 11 11 10 10 9 9 8 8 9 11 11 14 16 16 16 16 14 14 15 19 22 23 22 21 21 21 23 25 25 21 17 15 16 17 17 16 12 8 5 3 2 7 13 18 17 15 16 16 16 18 19 16 18
2 5 8 7 4 3 4 3 4 5 1 1 5 2 11 16 15 13 9 7 7 8 10 11 10 11 12 10 9 9 9 11 12 11 11 10 9 9 9 8 7 7 8 11 13 15 17 17 18 18 18 19 19 21 25 25 23 22 22 21 22 24 24 21 17 14 14 15 16 16 15 13 10 7 5 4 6 9 12 13 15 18 19 21 23 21 16
3 4 7 8 3 3 2 1 3 6 3 2 2 3 12 14 10 9 9 9 11 10 9 10 10 10 11 10 9 9 9 9 10 11 10 10 9 9 9 8 7 8 10 12 14 17 18 17 18 19 20 22 21 21 25 26 25 23 22 22 22 22 22 20 17 14 13 14 14 12 11 10 10 10 8 6 6 6 6 8 12 17 20 21 23 24 20
3 5 6 4 3 3 2 5 7 8 3 5 10 11 11 13 13 14 13 12 11 9 7 8 10 11 11 9 9 9 8 9 10 11 10 10 10 9 8 7 7 8 10 12 13 17 18 16 17 19 20 22 22 21 22 24 24 23 22 23 22 20 19 16 14 13 14 14 13 10 8 6 6 7 9 9 8 7 6 6 9 12 15 18 21 22 21
1 3 1 0 3 2 5 6 6 8 6 10 14 12 9 11 14 15 14 12 10 9 9 8 9 11 10 7 7 7 6 6 10 11 9 9 9 9 9 9 9 9 11 12 14 18 18 17 17 18 20 21 22 22 21 22 23 22 23 23 20 18 16 15 13 12 14 15 15 12 9 7 7 7 7 9 9 8 7 6 7 8 10 13 17 20 20
2 2 2 1 2 3 3 3 2 3 6 8 9 7 6 8 10 12 13 13 10 9 10 10 9 10 9 6 4 5 7 7 9 12 12 11 11 12 14 14 12 11 11 13 17 19 19 21 21 20 20 20 20 20 20 20 20 20 21 21 20 18 16 15 15 13 13 14 14 13 13 11 10 10 9 9 9 8 8 8 7 7 7 9 12 15 17
2 1 2 0 1 1 2 3 2 2 5 9 10 8 5 5 8 10 11 12 12 11 11 11 10 9 8 5 3 5 7 8 10 12 14 15 16 17 17 14 12 11 13 14 18 19 20 22 22 21 20 19 18 19 18 17 18 18 19 18 18 18 16 15 16 14 13 14 12 11 13 13 12 11 11 10 9 9 11 12 10 9 8 9 9 10 12
2 1 2 1 1 3 3 3 4 5 6 9 10 7 1 4 7 9 9 11 13 13 11 11 10 7 6 4 4 5 7 8 10 11 12 15 17 18 16 13 12 14 15 16 19 21 21 21 21 20 18 17 17 17 16 15 16 16 17 16 15 16 16 15 16 14 13 14 13 8 8 11 13 13 14 14 13 12 14 15 13 11 11 11 11 10 10
3 2 2 1 1 2 1 5 7 7 6 7 8 4 3 6 8 9 8 10 13 12 10 8 7 5 5 5 5 6 7 11 14 14 12 14 16 16 16 15 15 17 18 19 20 21 21 20 19 17 16 16 16 15 15 14 14 14 14 13 13 14 14 14 14 13 12 14 14 10 6 7 9 10 12 13 13 13 13 14 13 12 12 12 13 14 13
3 4 3 1 1 1 2 6 6 6 6 6 5 4 6 6 9 8 7 8 10 12 10 6 4 4 5 6 7 8 9 11 13 15 16 16 16 15 16 17 17 17 18 19 19 19 19 18 17 16 15 15 15 15 15 15 14 13 11 10 10 11 12 13 13 13 13 14 13 11 9 8 7 7 9 9 8 8 9 10 11 12 12 13 14 15 15
3 3 2 1 1 2 2 7 7 5 5 3 2 4 2 4 8 9 9 8 7 10 10 7 6 6 7 8 9 10 10 9 10 14 17 17 16 16 17 18 17 16 17 17 16 16 16 16 17 16 16 16 15 15 15 15 15 13 11 9 8 8 10 11 12 13 14 13 13 11 11 10 9 8 9 9 7 7 8 9 11 12 13 14 15 16 16
2 2 1 2 0 3 2 7 5 4 2 4 3 4 5 8 11 11 11 9 8 9 10 9 9 8 8 9 9 9 10 10 12 15 16 16 16 15 17 18 16 15 16 15 14 14 14 14 15 15 15 15 14 14 13 13 13 12 11 12 9 5 7 10 10 11 12 12 13 12 11 11 12 12 12 11 9 9 9 9 11 12 12 13 15 16 17
1 1 1 1 2 3 5 6 4 2 2 2 1 4 7 8 9 9 8 8 8 9 10 10 10 9 9 9 8 9 10 10 12 14 16 17 16 15 16 17 14 13 15 14 12 13 13 13 13 13 13 13 13 13 13 13 13 12 13 15 12 6 5 6 8 10 11 11 13 12 10 11 13 14 15 14 13 13 11 9 9 11 12 13 14 15 17
1 1 2 2 1 4 7 7 5 5 5 4 5 6 7 7 7 6 7 8 9 10 10 10 8 8 8 8 8 9 10 9 11 14 15 15 14 14 15 14 11 10 11 10 11 12 13 14 15 15 14 14 13 13 13 14 14 13 14 15 14 11 7 4 6 9 11 11 13 12 11 12 14 15 17 17 16 15 12 10 12 14 15 16 16 16 16
1 1 2 1 4 7 7 7 6 6 6 6 6 7 7 6 6 6 7 8 8 8 9 8 7 7 8 8 8 9 9 9 11 14 14 13 13 13 13 11 8 7 6 7 10 11 12 13 14 15 15 15 15 14 14 13 12 13 14 13 13 13 11 6 6 9 9 11 12 12 11 13 15 15 17 17 17 16 15 16 17 17 16 16 17 18 17
2 1 2 1 2 7 9 7 6 6 6 7 7 7 7 7 7 8 8 8 8 8 8 7 7 8 8 9 8 8 8 8 10 13 13 13 13 12 9 7 5 3 3 6 8 9 10 12 14 14 15 15 15 15 14 12 11 11 11 12 12 13 13 10 6 7 8 10 11 11 11 13 15 17 18 18 17 18 19 21 21 18 17 18 19 20 20
2 1 1 5 5 2 7 8 6 6 6 7 8 8 8 8 8 8 9 8 7 7 6 7 7 8 8 9 8 7 7 8 10 11 12 13 12 8 5 3 3 4 6 8 9 9 10 13 14 15 15 15 15 14 13 13 12 10 10 11 12 12 14 12 6 5 7 7 9 11 12 13 16 18 18 19 19 19 20 20 21 21 20 20 20 21 22
2 2 4 8 9 5 0 4 6 7 7 8 9 8 8 9 8 7 8 7 7 7 6 6 7 8 8 8 8 7 7 7 9 12 12 11 8 5 3 3 4 5 7 9 10 10 12 13 14 15 16 16 17 17 15 13 12 10 10 11 12 13 14 12 7 4 4 5 7 9 11 13 15 16 17 18 19 19 19 18 19 21 22 20 20 23 25
0 1 3 5 3 3 4 3 4 8 8 9 10 8 8 8 7 6 7 7 8 10 10 9 8 7 7 8 9 8 6 6 9 12 11 8 6 6 6 5 4 5 7 10 11 12 12 13 14 15 16 16 16 18 18 16 13 11 10 10 11 13 13 9 5 6 7 6 7 8 9 11 14 16 17 17 17 17 18 18 18 19 19 19 21 24 25
2 2 2 2 0 3 5 5 1 8 9 8 9 9 8 8 8 7 7 6 6 8 10 10 8 6 7 11 11 8 7 9 10 10 8 6 6 6 4 2 4 8 10 10 11 11 12 12 12 14 16 16 16 18 19 19 17 15 13 12 11 11 10 9 9 8 7 7 8 8 9 10 13 16 18 19 17 16 17 18 19 19 19 19 20 20 22
1 0 1 1 1 2 4 5 3 4 8 8 8 8 8 9 9 8 7 7 7 6 7 9 10 9 10 14 14 10 10 11 9 8 8 8 6 4 2 4 8 11 10 10 10 10 11 11 11 13 15 16 17 18 18 19 19 17 15 13 12 10 9 9 9 9 8 8 9 11 11 11 12 15 18 20 19 19 20 21 22 22 21 19 17 18 19
2 3 3 1 1 3 4 5 6 2 4 7 7 7 7 10 12 11 9 9 11 10 7 7 11 9 6 8 12 12 11 10 9 8 9 7 4 2 4 8 11 11 10 10 9 9 10 10 10 13 14 15 16 18 18 18 18 18 16 14 13 11 10 9 9 9 9 10 11 11 11 11 12 15 17 19 21 23 27 28 26 24 22 19 18 18 18
3 4 4 3 3 3 4 3 4 5 5 3 5 8 10 12 13 13 10 9 10 11 11 11 12 11 11 10 11 11 10 9 9 9 7 5 4 4 7 10 10 9 9 9 9 9 9 9 10 11 13 15 16 17 18 17 17 18 17 16 14 12 10 9 9 9 9 10 10 10 10 11 13 15 17 20 22 24 27 28 27 26 24 22 21 20 18
4 2 2 3 3 2 1 1 2 4 7 6 2 7 12 14 14 14 12 8 5 6 12 15 16 15 14 12 10 9 6 5 5 4 5 5 5 6 7 9 9 8 8 9 10 9 10 10 10 10 10 12 14 15 16 17 17 17 18 17 16 14 12 11 11 11 11 11 11 11 12 12 13 16 19 21 22 23 23 24 25 26 26 25 23 22 21
5 4 2 2 3 2 1 1 2 2 4 7 6 2 10 13 11 11 10 8 7 7 12 17 18 17 15 13 10 7 4 1 0 4 8 7 5 5 7 8 8 7 7 9 10 9 9 10 10 9 9 10 11 12 13 15 16 17 17 17 16 15 14 15 15 14 13 12 12 13 13 13 14 16 18 19 21 21 22 22 23 24 25 26 26 25 23
4 5 4 4 5 7 6 3 2 3 3 6 8 4 7 10 8 6 6 8 10 10 11 14 17 16 15 14 11 6 2 2 1 7 9 7 5 5 6 6 6 7 8 9 9 9 8 8 9 10 10 10 10 10 11 12 14 16 16 15 15 15 15 16 17 16 14 14 14 14 14 13 14 15 17 19 20 20 20 21 23 24 25 25 25 24 23
2 2 2 3 6 8 9 6 5 4 3 5 6 5 4 6 6 5 5 7 9 9 10 12 14 14 15 15 11 6 4 3 1 6 6 4 3 4 4 4 5 7 7 7 8 8 7 7 8 9 10 9 9 10 10 11 13 14 15 14 14 13 14 16 17 16 16 16 16 15 15 14 15 16 18 19 19 18 19 20 21 22 23 23 23 23 22
3 2 3 5 6 5 6 6 6 6 5 5 7 7 6 7 7 7 6 6 6 8 13 16 14 14 15 15 12 10 7 4 4 5 4 2 2 3 4 5 5 5 5 5 6 6 6 6 7 8 9 9 9 10 11 11 12 14 14 14 14 14 14 15 16 17 18 18 16 15 16 16 16 17 18 18 17 17 17 18 19 21 22 23 22 21 21
3 3 5 5 3 1 1 2 3 5 6 5 5 5 5 5 6 5 5 6 8 11 14 15 15 16 17 15 13 11 7 5 5 5 3 3 4 4 5 5 5 4 3 3 4 4 5 6 7 8 9 10 11 11 11 11 12 12 13 13 14 13 13 14 15 16 16 16 15 15 15 16 16 16 17 17 16 15 16 17 19 20 21 22 22 21 21
3 3 3 3 2 2 1 0 1 2 3 2 3 6 7 2 3 5 5 6 9 12 13 14 16 19 19 17 13 11 8 6 5 5 6 5 5 5 6 5 4 3 3 3 3 4 5 6 7 8 10 11 11 12 11 10 11 11 12 13 14 13 13 13 14 15 14 13 13 14 15 15 16 17 18 17 17 16 16 17 18 19 20 21 22 22 22
3 2 0 2 2 3 3 2 1 2 3 1 2 4 4 2 3 8 9 8 7 7 11 17 21 21 20 18 16 12 10 8 7 8 8 6 6 6 6 4 3 4 4 3 2 4 5 5 6 8 10 11 11 11 11 11 11 10 11 13 14 14 14 14 14 14 13 13 13 14 15 15 16 17 17 17 17 17 17 18 19 20 21 21 22 22 22
3 2 0 2 4 5 5 4 2 3 3 3 3 4 4 3 4 8 8 8 6 2 3 14 23 23 20 19 18 15 12 11 9 8 8 8 8 8 6 4 4 4 4 3 4 6 5 4 5 8 10 10 10 10 11 11 11 11 13 14 14 14 14 14 14 14 14 14 15 15 15 15 16 16 16 16 17 17 18 19 19 19 19 19 20 20 19
6 3 1 2 3 5 5 5 5 5 3 3 5 5 7 9 11 9 7 9 11 8 6 7 17 21 19 19 19 17 14 13 11 9 10 10 8 7 5 4 2 1 2 4 7 7 6 5 6 8 10 9 9 9 9 10 11 13 14 14 14 13 13 14 14 15 15 15 15 15 15 15 15 16 16 17 17 18 18 18 18 18 18 18 18 18 18
9 7 4 3 3 5 5 4 5 7 6 5 5 5 6 8 11 12 10 11 15 16 16 13 13 18 19 18 18 17 14 12 10 11 12 10 7 6 5 3 1 1 2 6 8 6 5 6 8 9 8 7 6 7 8 10 11 13 14 14 14 14 14 15 16 15 15 14 14 14 14 15 15 16 16 17 17 18 17 17 18 17 17 18 18 18 19
9 10 9 7 6 6 6 5 4 5 6 7 6 6 7 7 9 14 15 15 18 22 20 17 15 18 20 19 18 16 14 12 12 11 11 10 8 7 5 2 1 3 5 7 5 4 5 7 8 6 5 5 7 8 9 10 11 14 16 16 16 16 16 16 15 14 14 14 14 14 14 14 14 15 16 16 16 17 17 17 17 17 17 17 18 19 20
6 8 10 9 9 8 8 7 6 5 5 5 6 7 8 8 10 14 16 18 21 22 19 17 16 19 21 19 17 16 16 16 15 13 11 10 9 6 3 3 5 6 6 5 3 3 6 6 5 2 3 7 9 8 8 9 12 16 19 18 17 16 15 14 14 14 14 14 14 13 13 13 14 15 16 17 17 17 17 17 17 17 17 17 18 19 20
4 5 7 8 9 9 9 8 7 7 6 5 6 7 7 8 10 12 14 17 20 21 18 15 15 18 20 19 18 17 17 17 16 14 12 11 10 6 4 8 11 9 5 4 3 4 6 4 2 2 4 6 6 6 8 12 16 17 17 15 14 14 13 13 14 14 14 13 13 12 12 13 14 14 16 17 18 18 17 17 16 17 17 17 18 18 19
5 7 8 9 9 9 9 9 8 8 9 8 7 6 6 6 9 12 14 16 18 19 17 15 15 17 20 20 20 19 18 17 16 14 12 12 11 8 7 11 13 9 5 5 4 4 4 1 2 1 3 5 6 8 12 15 15 13 12 12 12 13 13 13 13 14 13 13 13 13 13 14 15 15 15 16 17 18 17 17 16 16 16 17 17 17 18
10 11 12 11 10 8 8 9 10 10 10 9 8 7 6 6 10 14 15 15 16 16 16 15 16 17 20 22 21 21 20 18 17 16 15 13 11 9 8 12 13 9 6 5 3 4 3 3 3 1 4 7 10 12 13 13 11 10 11 12 11 12 12 13 13 13 14 14 15 15 15 15 16 16 16 16 17 17 17 17 16 16 16 16 17 17 17
11 11 11 12 11 9 7 8 9 10 11 10 9 8 7 8 10 12 13 14 15 17 18 17 17 16 19 21 20 20 20 19 18 17 16 14 12 10 9 11 10 8 6 5 4 3 2 3 1 3 7 10 13 12 11 9 9 9 11 11 11 11 13 13 13 13 14 14 14 15 16 16 17 17 17 17 17 17 17 17 17 17 17 16 15 15 15
12 10 9 12 13 12 10 10 10 9 9 10 11 10 9 8 9 11 12 14 17 18 20 20 18 17 19 20 19 20 21 20 19 18 16 14 13 12 11 10 10 8 6 5 5 3 2 2 1 5 9 11 12 11 9 8 9 10 10 11 11 12 13 13 14 14 14 14 14 15 16 16 17 17 18 18 18 18 17 17 17 16 15 14 13 14 14
11 10 10 12 13 13 12 11 10 9 10 12 13 13 11 9 8 10 12 13 15 17 18 19 17 16 16 15 15 19 21 20 20 19 17 13 12 13 12 9 9 10 7 3 3 3 4 2 2 6 8 10 10 8 7 8 9 9 10 11 12 12 12 12 13 13 14 14 15 15 15 16 16 17 18 18 19 19 17 16 15 14 13 12 12 13 13
11 12 12 12 11 12 13 13 11 11 12 12 11 11 11 10 8 9 12 13 15 17 20 22 22 20 16 14 13 17 18 17 16 16 14 10 12 15 14 10 9 10 6 2 2 5 5 2 3 5 7 7 6 6 7 8 8 8 9 10 11 11 11 11 11 12 13 14 14 14 15 16 16 16 17 18 18 18 17 16 14 13 11 11 11 12 12
11 12 12 11 11 12 13 13 12 12 11 9 8 9 10 9 7 8 11 14 17 19 22 24 25 23 19 17 17 18 18 15 14 13 11 9 11 14 14 11 9 8 4 2 4 6 5 1 2 4 5 5 4 5 6 7 8 8 9 10 11 10 10 11 11 12 13 13 13 13 14 15 15 15 16 16 16 16 16 15 14 12 10 10 11 11 11
10 12 12 11 11 12 13 12 10 9 7 5 5 8 8 4 4 8 11 16 20 20 20 22 24 21 17 15 16 18 16 13 13 13 12 11 11 13 13 12 9 7 4 4 7 7 4 2 3 2 2 2 3 5 5 6 7 8 9 10 11 10 10 11 11 12 12 12 11 12 13 14 14 14 13 13 13 13 13 12 11 9 8 8 9 10 10
10 11 11 10 10 11 11 10 8 7 6 5 5 6 3 3 8 10 12 16 19 18 15 16 19 19 15 13 15 15 12 9 12 14 13 11 11 13 13 12 10 7 5 6 7 7 5 3 2 1 1 1 3 4 5 5 6 7 8 9 9 9 11 11 11 11 11 11 10 10 12 12 13 12 12 12 11 11 10 10 9 9 8 8 8 8 8
9 9 10 10 9 9 9 9 9 9 9 8 6 4 3 6 9 10 12 17 19 17 14 14 16 17 14 13 14 14 11 9 12 14 11 8 9 11 12 11 9 8 6 6 6 6 5 5 5 4 2 2 4 4 4 5 7 8 8 8 8 10 11 11 10 10 11 10 10 10 10 11 11 11 11 10 10 9 9 9 9 9 9 8 8 8 9
8 8 8 9 9 8 9 10 11 9 7 5 4 2 3 7 8 9 12 16 17 15 13 13 14 14 14 14 14 14 13 11 11 11 8 6 7 9 10 9 7 5 5 5 6 6 6 6 5 4 3 4 4 4 5 6 8 8 8 8 9 10 10 9 9 9 9 9 9 10 9 9 9 9 9 9 9 9 9 8 8 8 8 8 7 7 7
9 9 9 9 10 11 12 12 12 10 8 6 5 5 6 9 11 12 14 15 12 8 9 12 13 13 13 14 14 13 12 11 10 9 7 6 5 6 6 6 5 5 5 5 5 5 5 5 5 5 5 5 6 6 6 7 8 9 9 9 9 9 9 9 9 9 8 8 9 9 9 8 8 8 8 8 7 7 7 8 8 8 8 7 6 6 6
Wind_Direction
284 290 311 329 332 17 11 335 325 358 39 60 45 27 124 131 121 136 157 148 140 143 135 129 129 126 121 119 121 122 121 123 124 116 110 105 98 89 78 62 50 55 72 83 77 67 63 68 69 66 64 65 66 65 62 55 52 50 54 66 73 70 61 54 50 48 52 48 357 219 214 216 217 217 220 225 255 314 265 216 212 218 223 226 224 219 219
336 305 271 303 352 9 4 341 353 24 22 29 357 357 88 101 117 132 135 131 125 122 120 122 125 122 117 112 110 108 109 111 108 99 94 92 87 83 79 72 59 45 51 75 82 72 63 64 67 69 74 80 81 81 79 70 61 58 58 62 70 74 69 60 55 52 52 57 64 94 197 223 227 226 226 222 221 243 266 230 221 225 231 236 237 225 218
341 318 305 3 350 333 328 331 359 40 18 347 350 45 98 107 113 121 120 114 110 110 111 112 113 111 108 106 106 106 104 101 94 91 91 88 81 74 68 65 60 45 37 50 73 75 66 59 58 62 74 89 94 94 89 80 71 65 63 62 66 73 73 66 61 60 58 58 61 64 63 42 335 241 240 234 225 224 232 236 231 230 236 247 256 243 223
326 316 321 313 275 274 310 323 325 360 25 332 343 54 117 122 121 119 116 115 121 127 114 108 110 111 106 100 96 96 98 97 92 88 85 86 86 79 67 55 49 44 34 31 50 70 68 58 50 46 48 59 78 88 84 79 76 70 66 65 64 67 72 69 62 60 61 63 65 65 63 58 49 35 311 264 244 233 227 228 232 230 232 241 250 256 241
299 292 296 289 266 275 299 286 290 314 12 20 326 7 121 129 134 132 131 135 134 128 121 120 122 113 104 99 92 90 97 99 97 94 87 85 87 83 76 63 47 38 28 19 34 60 65 57 49 43 39 41 58 80 81 74 72 68 63 64 64 63 66 68 65 59 58 64 69 69 69 66 60 47 19 336 293 263 245 239 237 232 228 233 237 243 250
298 298 311 312 286 229 264 65 24 333 295 202 332 72 120 125 123 115 121 132 131 129 131 129 124 112 105 106 100 97 103 104 102 102 98 93 92 87 80 73 54 39 27 21 36 56 60 56 52 47 41 39 48 70 79 72 66 63 59 59 61 59 58 62 64 59 55 59 62 64 67 65 60 54 37 8 346 330 298 265 249 237 230 231 231 233 241
301 323 347 333 251 216 33 38 19 344 315 119 86 80 105 116 113 113 117 126 129 126 122 117 111 109 108 108 109 113 117 115 112 110 104 100 99 96 90 79 57 40 24 19 42 58 54 49 54 53 48 43 41 52 69 70 62 58 56 55 55 55 55 53 54 55 56 59 58 52 48 42 37 44 42 25 6 351 333 292 269 256 241 233 231 233 241
292 324 2 210 261 301 34 32 4 1 34 82 83 77 88 109 120 127 128 128 119 104 106 111 109 111 110 101 107 113 102 106 115 112 103 100 100 105 107 95 68 41 22 26 56 67 53 40 47 57 57 51 43 44 56 64 59 52 51 50 47 48 48 42 41 49 53 57 57 50 42 43 43 41 38 33 22 1 342 321 294 277 257 241 235 235 240
197 242 220 170 331 327 33 51 355 18 63 90 99 96 101 117 128 132 131 129 119 108 118 124 117 115 109 91 89 85 62 69 100 104 99 97 99 101 100 95 78 50 32 43 63 67 52 43 49 57 57 53 48 44 49 58 57 51 49 45 38 37 37 33 34 41 42 42 46 44 37 38 46 46 38 33 29 13 352 335 319 303 284 265 254 249 248
218 229 260 14 63 249 220 169 172 64 85 112 115 99 96 134 140 137 137 135 134 139 144 137 128 125 117 113 145 124 93 86 93 93 88 86 88 87 83 79 76 61 46 52 63 60 50 48 51 51 50 49 46 42 44 53 57 53 49 43 35 31 30 26 28 32 32 28 27 32 33 30 29 29 24 17 11 4 352 337 325 316 303 288 277 271 268
273 209 244 233 210 256 232 162 108 56 71 105 106 91 119 180 149 144 149 141 136 141 144 137 133 137 139 152 180 154 120 102 88 80 71 69 74 77 72 64 66 64 53 52 58 54 48 48 47 43 43 44 41 36 37 47 56 56 50 43 33 28 27 25 24 24 25 23 18 23 36 31 24 18 14 7 355 342 336 330 321 317 313 306 296 287 280
272 255 248 237 292 292 173 112 91 78 83 92 93 99 217 185 153 152 150 134 129 132 136 135 132 144 160 163 166 152 124 101 93 91 82 68 63 65 62 56 57 57 51 48 50 47 45 46 43 39 39 40 38 33 31 39 49 53 51 42 33 30 26 21 20 21 19 16 14 16 19 16 20 22 17 11 1 348 339 328 319 316 318 317 310 300 293
255 247 247 242 321 285 90 82 77 79 74 70 100 180 212 176 150 144 122 114 128 139 143 141 121 116 122 115 114 113 99 89 92 97 92 80 68 61 62 59 53 49 47 45 42 40 41 41 37 35 37 38 36 30 28 32 32 32 39 38 34 36 30 18 13 16 14 9 7 7 4 357 3 15 10 1 355 352 345 330 323 324 325 324 319 311 305
255 246 246 60 350 277 95 76 50 43 71 96 205 245 244 118 112 103 90 92 115 128 126 122 115 117 113 101 96 95 91 87 87 84 81 76 65 57 59 57 47 41 41 40 36 36 36 34 31 30 31 34 31 24 26 27 15 10 19 21 22 37 33 17 11 8 5 1 357 355 355 354 354 352 346 336 323 323 329 328 329 331 332 331 328 324 322
247 247 227 101 254 271 116 94 48 17 98 177 247 334 37 78 96 101 101 101 107 107 104 103 105 101 89 81 79 80 82 86 85 81 77 73 64 55 53 51 42 34 32 29 29 30 28 26 27 25 25 27 22 16 21 19 4 360 3 357 354 17 28 20 15 5 356 350 349 349 347 345 345 345 345 344 339 331 327 329 334 339 345 346 343 340 338
307 249 262 211 253 344 55 94 100 66 98 146 35 52 65 73 83 92 94 92 92 92 93 96 97 92 87 84 81 78 76 78 82 80 76 72 67 61 57 53 42 31 25 20 20 23 22 23 24 22 22 20 11 8 11 5 358 357 355 352 350 349 5 24 22 3 350 345 350 354 347 338 344 352 356 356 354 347 340 340 348 350 350 351 349 347 345
194 186 252 229 142 58 62 83 94 79 66 56 62 78 85 87 90 93 95 96 92 89 92 96 94 97 105 102 93 87 84 81 80 78 74 71 69 68 65 57 44 32 23 15 16 20 21 21 19 17 18 14 7 5 0 356 358 357 351 351 353 349 351 19 26 5 349 344 350 355 350 348 352 357 356 353 354 358 3 7 2 351 343 341 341 339 339
94 60 314 57 102 96 86 83 83 75 58 44 52 64 73 88 100 102 99 100 97 93 96 98 94 98 104 98 89 89 89 86 83 82 82 79 72 68 65 57 46 35 21 17 25 26 22 19 16 15 13 7 2 358 353 350 353 353 348 347 347 345 343 346 14 14 353 341 348 353 355 360 1 357 354 352 354 357 360 358 353 345 338 335 332 329 328
18 262 271 303 119 121 109 96 88 80 59 45 56 70 72 77 89 98 100 101 98 91 87 91 94 98 100 97 93 89 87 87 88 88 89 85 77 69 61 53 37 9 10 34 36 28 22 22 20 15 10 3 356 354 353 350 345 342 344 342 337 336 334 331 356 15 347 336 353 3 0 360 357 351 349 351 350 347 344 342 340 336 332 329 325 323 322
318 208 341 342 340 105 129 127 121 104 81 66 69 76 79 77 75 80 88 94 95 90 83 85 90 90 92 98 102 100 98 101 102 101 97 92 85 76 69 61 25 8 31 46 41 32 31 29 21 14 8 2 357 350 344 341 339 337 339 337 331 328 326 319 323 345 337 343 7 11 2 354 347 342 342 341 340 339 337 334 330 325 324 324 323 321 318
329 342 10 8 356 342 14 121 123 129 120 102 96 90 87 88 79 67 74 87 99 107 105 96 94 94 92 93 97 98 98 105 111 108 101 95 93 84 66 58 42 35 43 45 40 39 37 29 20 13 5 359 360 358 351 341 334 328 330 335 335 333 327 317 310 345 16 26 15 2 354 345 335 331 331 331 329 328 329 330 328 324 319 315 317 321 318
261 288 1 21 11 289 289 341 103 129 123 112 116 116 107 107 105 88 76 77 86 98 101 95 93 100 108 110 106 104 113 126 119 107 99 96 97 83 56 34 38 55 57 51 45 41 34 25 18 11 3 360 7 12 11 7 0 351 349 349 345 343 344 349 21 50 48 35 10 356 350 342 332 325 324 327 327 325 326 328 327 325 320 313 314 317 315
177 151 82 40 62 221 266 309 60 136 135 131 139 144 140 136 135 128 119 109 98 103 110 114 116 120 131 133 132 139 153 143 122 110 111 108 92 81 62 23 52 65 63 57 48 38 31 25 18 10 6 8 17 20 18 18 20 20 18 14 6 1 7 22 36 38 30 16 1 346 338 336 331 326 326 330 328 323 324 324 322 320 319 314 311 311 309
220 206 158 162 282 261 271 309 339 143 153 153 153 154 150 141 136 135 134 132 131 123 123 144 164 169 162 161 162 160 145 127 111 109 116 105 85 79 86 72 69 65 59 57 51 39 32 27 18 14 15 15 18 21 21 20 22 23 23 22 20 15 11 11 16 19 14 4 353 344 341 342 336 329 329 331 327 321 318 318 317 319 321 318 312 310 309
227 250 244 228 314 292 286 319 335 330 149 144 145 145 141 136 139 149 156 149 149 148 142 163 176 164 140 151 152 137 124 120 114 106 98 88 73 64 75 75 72 63 54 54 51 40 36 33 20 16 20 18 17 20 21 19 19 18 16 15 14 11 5 4 8 8 2 358 357 356 356 352 340 333 332 332 329 323 318 316 316 321 326 328 322 316 309
263 246 244 255 282 298 315 335 330 338 4 59 130 143 150 151 146 147 151 146 150 157 152 149 148 127 96 90 99 99 98 101 99 93 90 86 75 64 66 69 66 56 48 49 47 38 39 41 30 20 20 19 16 16 16 13 12 11 9 6 5 3 2 2 1 357 354 357 359 356 350 341 333 329 326 325 325 322 318 317 319 322 326 330 330 326 317
299 282 245 249 257 274 313 165 229 324 345 347 33 130 156 164 145 127 121 107 105 149 150 140 133 122 109 99 92 88 87 83 82 98 112 100 77 63 65 66 59 48 43 48 50 44 39 39 37 32 27 21 16 12 9 6 6 5 3 1 360 358 358 0 360 357 355 353 347 340 335 332 327 324 322 320 318 316 313 312 314 316 319 322 324 323 319
327 333 305 252 241 253 290 137 199 265 307 305 314 98 149 159 141 124 125 111 88 102 122 125 125 122 117 114 106 97 91 344 216 135 123 105 85 73 71 64 55 47 50 55 53 45 37 34 35 36 35 30 25 16 4 359 359 359 357 356 356 357 1 5 4 0 356 350 342 334 329 325 321 318 316 313 307 303 304 307 309 310 312 315 319 322 323
350 347 337 321 309 306 308 297 234 215 225 263 275 245 160 156 148 140 147 137 118 107 106 115 121 123 122 121 116 104 72 314 59 105 107 102 96 89 75 61 52 49 52 52 46 38 34 31 32 37 38 32 28 23 10 359 355 353 350 349 350 354 360 2 0 356 352 347 342 338 333 327 323 318 313 308 302 298 300 304 306 307 308 312 319 327 331
1 17 25 16 356 332 318 305 281 255 232 242 256 246 180 161 156 152 152 149 142 138 136 134 130 127 127 129 131 144 192 234 111 98 98 95 97 99 94 83 66 52 46 42 35 29 27 28 34 42 40 30 23 23 16 4 356 351 349 350 351 352 355 355 354 352 348 341 336 333 331 326 323 318 311 305 300 299 299 302 304 307 310 314 319 324 329
342 22 70 67 48 10 336 326 317 304 288 259 238 221 192 171 166 162 159 163 163 155 152 152 148 141 139 142 150 167 186 187 133 115 112 123 139 128 111 99 84 65 51 42 30 18 19 31 44 43 31 21 21 22 15 7 1 356 353 353 354 352 350 348 347 344 341 335 329 325 323 320 316 313 310 306 302 301 303 307 310 311 312 314 316 318 322
352 20 49 56 54 42 359 344 330 321 322 318 283 253 220 173 161 166 168 173 176 167 160 158 153 147 146 149 154 163 171 161 143 148 173 190 176 146 114 102 93 82 72 54 27 14 23 44 53 41 23 15 16 17 14 7 1 358 355 354 353 349 344 341 338 334 331 326 322 320 319 318 317 315 313 311 309 308 308 310 311 311 311 312 312 314 318
7 22 35 20 347 342 346 281 228 267 300 354 333 293 289 277 176 193 202 192 181 171 165 159 153 151 154 156 155 156 161 160 167 193 203 187 156 124 105 93 79 70 67 56 40 39 53 66 61 39 21 12 10 10 9 4 359 358 357 356 353 346 338 332 331 329 323 317 314 317 320 319 315 312 311 311 312 313 311 310 308 307 306 307 306 308 312
30 43 354 247 244 261 272 268 238 248 252 202 186 242 275 310 251 227 217 208 203 186 167 161 157 155 157 157 155 156 163 172 191 205 195 167 136 117 103 84 68 58 42 35 67 83 80 74 54 27 14 10 9 7 4 1 360 360 359 356 353 346 337 331 329 326 322 318 316 317 317 313 309 308 309 312 314 313 310 306 304 303 302 303 305 306 308
21 51 12 250 232 243 262 272 264 247 240 221 209 195 154 147 231 230 204 184 192 225 165 159 159 159 159 157 155 159 172 187 200 195 167 139 126 122 110 84 69 50 21 32 89 93 76 51 21 6 4 6 5 0 357 356 358 359 359 358 353 343 333 329 326 322 319 317 315 312 309 307 306 308 311 312 313 311 308 304 301 300 301 304 307 309 309
350 348 300 279 274 283 295 298 290 283 267 226 222 206 174 177 195 197 169 157 174 208 249 197 163 157 158 158 159 165 180 193 191 167 138 124 120 119 114 101 84 35 25 76 83 71 48 32 16 3 359 359 358 355 353 353 355 356 356 355 352 342 329 321 317 313 309 306 304 304 305 306 308 311 312 312 310 309 307 305 303 302 303 305 308 311 313
347 340 324 315 316 318 319 320 315 311 304 281 254 225 202 198 194 182 165 155 171 198 230 233 184 162 161 163 165 170 179 180 165 143 133 133 134 130 122 111 91 256 114 91 76 55 34 26 14 2 356 357 355 351 348 348 350 350 349 346 343 335 324 314 308 304 302 301 302 305 308 310 311 311 310 308 306 305 305 305 306 306 307 308 309 310 311
352 344 337 337 336 327 320 317 315 303 287 284 281 254 230 222 204 191 189 187 185 196 219 231 204 171 163 164 167 171 171 162 148 142 144 147 144 137 126 103 98 122 113 96 79 52 23 9 0 357 356 351 346 345 348 349 346 340 336 333 328 320 313 308 303 300 302 306 308 309 310 310 312 312 310 307 306 305 305 305 305 305 306 308 310 312 311
348 337 333 333 328 322 316 311 306 291 262 254 264 261 251 240 220 205 202 200 195 196 211 225 206 175 163 164 168 170 169 165 161 161 159 148 138 135 133 138 148 142 120 103 85 35 13 360 348 343 342 341 344 349 350 346 338 331 327 325 320 313 309 305 301 300 304 307 309 310 310 312 314 314 312 310 307 305 303 303 304 304 306 307 308 308 308
328 325 328 326 316 309 304 301 300 298 283 257 242 244 250 248 235 221 212 207 202 199 205 215 202 176 164 164 167 168 170 168 164 162 154 139 136 147 142 132 140 146 133 113 93 39 15 353 297 303 332 340 353 356 340 333 333 330 326 323 319 315 311 307 303 304 308 310 311 311 312 312 313 312 310 309 307 305 305 305 303 302 303 305 305 305 304
336 337 327 313 302 301 305 307 306 302 297 291 278 262 250 238 230 227 225 221 212 200 196 205 204 182 167 166 167 167 166 162 157 158 157 147 149 166 161 142 144 153 149 132 108 37 10 312 225 295 343 345 354 349 336 332 334 333 328 325 321 317 314 311 309 312 317 318 317 316 313 311 309 308 308 307 306 306 307 306 303 301 303 304 304 304 306
359 352 337 320 311 315 325 328 324 314 305 306 312 308 288 250 227 224 226 225 213 193 185 201 211 192 172 166 164 161 159 157 157 161 162 158 161 174 168 153 154 162 158 139 102 44 53 137 156 75 8 354 349 344 337 337 341 340 332 325 319 315 316 316 317 320 324 324 323 322 320 316 313 311 309 306 305 305 305 305 303 304 305 304 304 304 306
347 340 332 322 318 319 316 308 304 302 303 309 316 312 293 263 242 234 228 220 207 189 179 190 205 195 173 164 161 158 157 160 161 160 159 162 174 189 182 161 157 164 162 139 99 66 103 158 148 16 8 359 354 351 350 352 350 340 331 327 324 321 322 324 325 326 326 325 325 325 323 320 318 316 312 309 307 305 303 302 303 304 303 301 302 305 308
329 325 323 319 316 316 311 300 291 290 296 304 307 305 295 271 251 241 227 211 199 187 176 178 190 193 182 172 165 159 159 162 164 163 162 163 169 178 179 168 160 163 157 130 107 108 183 214 345 8 6 360 357 0 5 3 352 341 338 339 338 333 328 325 326 327 326 324 323 320 317 316 318 318 316 313 310 307 304 303 303 305 305 304 306 309 313
324 318 311 308 307 307 305 300 297 299 298 295 293 294 296 287 260 237 218 201 191 183 173 166 167 176 181 178 166 160 162 166 168 168 169 165 159 162 167 167 166 169 166 135 123 164 190 207 353 6 7 7 8 10 9 358 348 344 341 338 336 333 328 324 325 327 326 322 318 315 313 314 316 317 317 316 314 312 310 308 306 306 308 310 312 315 316
329 322 314 310 310 309 305 301 300 299 294 289 285 281 281 279 262 233 212 193 178 170 164 158 156 159 170 177 171 163 162 163 164 167 169 165 157 159 162 167 175 179 175 150 154 173 180 203 343 6 20 24 17 8 2 354 347 343 340 336 332 329 327 325 325 325 323 318 313 313 315 317 318 318 317 316 315 314 313 310 309 310 311 311 312 315 315
339 329 321 319 318 314 310 307 301 289 282 279 276 270 268 266 254 229 203 179 161 152 151 153 157 162 171 179 175 166 157 151 153 161 166 162 156 156 159 169 189 203 209 203 188 184 185 228 342 27 47 40 13 357 354 351 348 346 343 338 332 327 324 323 323 322 319 316 315 316 319 320 320 321 320 317 316 317 315 312 312 313 315 314 315 317 318
345 332 327 327 326 322 319 316 308 299 293 283 269 269 273 260 209 195 182 164 154 147 141 143 150 162 174 178 170 162 155 151 152 160 169 178 179 172 166 172 188 206 212 202 198 199 208 277 333 27 66 38 352 344 338 334 338 340 335 331 330 329 325 321 321 322 320 318 320 323 322 320 321 324 325 323 324 327 328 326 326 330 333 330 327 326 325
352 344 341 342 339 336 334 331 320 309 308 299 275 269 267 158 152 160 159 152 149 148 142 140 151 163 171 164 155 155 157 155 157 161 167 172 174 172 170 173 178 177 172 183 197 204 214 245 270 214 159 320 333 333 325 321 326 327 322 321 327 330 324 319 319 323 323 322 323 325 322 320 322 326 327 326 326 329 333 336 342 349 352 349 345 343 341
355 358 357 349 341 340 342 340 333 325 319 315 303 277 199 150 147 152 149 144 144 148 152 154 158 162 158 148 148 153 149 137 141 152 156 152 154 163 169 172 171 167 166 178 195 205 214 225 226 217 225 295 318 318 316 318 322 319 313 309 312 318 321 319 318 321 325 326 326 325 321 320 323 326 327 329 331 333 334 338 344 350 353 353 352 351 350
348 0 6 359 355 360 1 355 350 349 349 344 337 338 126 132 137 143 138 132 135 146 155 153 151 152 148 141 143 148 145 134 134 143 149 148 156 166 168 168 173 188 198 199 203 216 231 241 243 247 264 287 293 298 308 315 313 311 309 305 303 311 320 322 317 316 321 327 329 328 326 326 327 329 330 332 336 339 341 343 345 347 350 354 356 356 357
358 12 17 11 12 21 24 18 12 14 32 65 84 85 93 107 117 119 112 107 112 135 144 133 128 136 141 138 136 140 145 145 144 146 148 149 153 160 164 170 180 197 208 210 214 228 243 252 258 261 262 261 267 280 293 299 299 300 305 306 303 305 312 315 313 311 314 318 323 327 330 330 330 331 331 332 336 343 347 349 349 349 352 355 358 1 4